EW8032 Weather Reports


Display with metric or nautical units.
time (UTC)temp
F
wind
direction
speed
MPH
gust
MPH
rain 1hr
in
rain 24hr
in
rain mn
in
humidity
%
barometer
mb
20260831083615 71 273 1.0 4.0 0.00 0.00 0.00 80 1022.6
20260831083458 71 273 0.0 7.0 0.00 0.00 0.00 80 1022.6
20260831083342 71 273 0.0 7.0 0.00 0.00 0.00 80 1022.6
20260831083239 71 273 2.0 7.0 0.00 0.00 0.00 80 1022.6
20260831083215 70 273 2.0 7.0 0.00 0.00 0.00 80 1022.6
20260831083027 70 259 3.0 7.0 0.00 0.00 0.00 80 1022.6
20260831082841 70 279 5.0 8.0 0.00 0.00 0.00 80 1022.6
20260831082819 70 240 4.0 8.0 0.00 0.00 0.00 80 1022.6
20260831082648 70 263 2.0 8.0 0.00 0.00 0.00 81 1022.5
20260831081931 70 261 2.0 8.0 0.00 0.00 0.00 83 1022.5
20260831081639 70 222 3.0 8.0 0.00 0.00 0.00 83 1022.5
20260831081459 70 240 0.0 0.0 0.00 0.00 0.00 85 1022.6
20260831081451 70 240 0.0 0.0 0.00 0.00 0.00 85 1022.5
20260831080916 70 240 0.0 0.0 0.00 0.00 0.00 85 1022.5
20260831080845 70 240 0.0 0.0 0.00 0.00 0.00 86 1022.5
20260831080812 70 240 0.0 0.0 0.00 0.00 0.00 86 1022.5
20260831080648 69 240 0.0 0.0 0.00 0.00 0.00 86 1022.5
20260831080541 69 240 0.0 0.0 0.00 0.00 0.00 86 1022.5
20260831080416 69 240 0.0 0.0 0.00 0.00 0.00 86 1022.4
20260831080318 69 240 0.0 0.0 0.00 0.00 0.00 87 1022.5
20260831080243 69 240 0.0 0.0 0.00 0.00 0.00 88 1022.4
20260831075749 69 240 0.0 0.0 0.00 0.00 0.00 88 1022.4
20260831075649 69 240 0.0 0.0 0.00 0.00 0.00 88 1022.4
20260831075249 69 240 0.0 0.0 0.00 0.00 0.00 89 1022.5
20260831075149 68 240 0.0 0.0 0.00 0.00 0.00 90 1022.4
20260831075117 68 240 0.0 0.0 0.00 0.00 0.00 90 1022.4
20260831075034 68 240 0.0 0.0 0.00 0.00 0.00 90 1022.4
20260831074610 68 240 0.0 0.0 0.00 0.00 0.00 92 1022.4
20260831074557 68 240 0.0 0.0 0.00 0.00 0.00 92 1022.4
20260831074352 68 240 0.0 0.0 0.00 0.00 0.00 91 1022.3
20260831074014 67 240 0.0 0.0 0.00 0.00 0.00 92 1022.4
20260831073250 67 240 0.0 0.0 0.00 0.00 0.00 92 1022.3
20260831073158 67 240 0.0 0.0 0.00 0.00 0.00 92 1022.4
20260831073147 67 240 0.0 0.0 0.00 0.00 0.00 92 1022.3
20260831072929 67 240 0.0 0.0 0.00 0.00 0.00 93 1022.3
20260831072847 67 240 0.0 0.0 0.00 0.00 0.00 93 1022.3
20260831072823 67 240 0.0 0.0 0.00 0.00 0.00 93 1022.2
20260831072327 67 240 0.0 0.0 0.00 0.00 0.00 93 1022.3
20260831072225 66 240 0.0 0.0 0.00 0.00 0.00 94 1022.3
20260831072211 66 240 0.0 0.0 0.00 0.00 0.00 94 1022.3
20260831072013 66 240 0.0 0.0 0.00 0.00 0.00 94 1022.3
20260831071920 66 240 0.0 0.0 0.00 0.00 0.00 94 1022.2
20260831071905 66 240 0.0 0.0 0.00 0.00 0.00 94 1022.3
20260831071755 66 240 0.0 0.0 0.00 0.00 0.00 95 1022.3
20260831071103 66 240 0.0 0.0 0.00 0.00 0.00 95 1022.2
20260831070841 65 240 0.0 2.0 0.00 0.00 0.00 95 1022.2
20260831070825 66 265 0.0 0.0 0.00 0.00 0.00 92 1021.6
20260831070814 66 265 0.0 0.0 0.00 0.00 0.00 92 1021.6
20260831070639 65 240 0.0 2.0 0.00 0.00 0.00 95 1022.2
20260831070530 65 240 0.0 2.0 0.00 0.00 0.00 96 1022.2
20260831070334 66 265 0.0 0.0 0.00 0.00 0.00 92 1021.6
20260831070310 66 265 0.0 0.0 0.00 0.00 0.00 92 1021.5
20260831070241 65 240 0.0 2.0 0.00 0.00 0.00 96 1022.2
20260831070132 65 240 0.0 2.0 0.00 0.00 0.00 96 1022.2
20260831070110 65 240 0.0 2.0 0.00 0.00 0.00 96 1022.2
20260831065841 65 265 0.0 0.0 0.00 0.00 0.00 96 1022.2
20260831065626 65 265 0.0 0.0 0.00 0.00 0.00 96 1022.1
20260831065527 65 265 0.0 0.0 0.00 0.00 0.00 96 1022.2
20260831065329 65 265 0.0 0.0 0.00 0.00 0.00 96 1022.2
20260831065242 65 265 0.0 0.0 0.00 0.00 0.00 96 1022.1
20260831065038 65 265 0.0 0.0 0.00 0.00 0.00 96 1022.2
20260831064955 65 265 0.0 0.0 0.00 0.00 0.00 96 1022.1
20260831064630 65 265 0.0 0.0 0.00 0.00 0.00 97 1022.1
20260831064228 66 265 0.0 2.0 0.00 0.00 0.00 91 1021.6
20260831064054 64 265 0.0 0.0 0.00 0.00 0.00 97 1022.1
20260831063850 64 265 0.0 0.0 0.00 0.00 0.00 97 1022.1
20260831063805 64 265 0.0 0.0 0.00 0.00 0.00 97 1022.2
20260831063729 64 265 0.0 0.0 0.00 0.00 0.00 97 1022.1
20260831063647 64 265 0.0 0.0 0.00 0.00 0.00 97 1022.1
20260831063502 64 265 0.0 0.0 0.00 0.00 0.00 97 1022.1
20260831063402 63 265 0.0 0.0 0.00 0.00 0.00 97 1022.1
20260831062912 63 265 0.0 0.0 0.00 0.00 0.00 97 1022.1
20260831062852 63 265 0.0 0.0 0.00 0.00 0.00 97 1022.0
20260831062813 63 265 0.0 0.0 0.00 0.00 0.00 97 1022.0
20260831062626 63 265 0.0 0.0 0.00 0.00 0.00 97 1022.0
20260831062313 63 265 0.0 0.0 0.00 0.00 0.00 97 1022.0
20260831062105 62 265 0.0 0.0 0.00 0.00 0.00 97 1021.9
20260831062026 62 265 0.0 0.0 0.00 0.00 0.00 97 1022.0
20260831061951 62 265 0.0 0.0 0.00 0.00 0.00 97 1022.0
20260831061906 62 265 0.0 0.0 0.00 0.00 0.00 97 1022.0
20260831061741 62 265 0.0 0.0 0.00 0.00 0.00 97 1021.9
20260831061652 62 265 0.0 0.0 0.00 0.00 0.00 97 1021.9
20260831061240 62 265 0.0 0.0 0.00 0.00 0.00 97 1021.9
20260831061144 62 265 0.0 0.0 0.00 0.00 0.00 97 1022.0
20260831060416 62 265 0.0 0.0 0.00 0.00 0.00 96 1021.9
20260831060336 62 265 0.0 0.0 0.00 0.00 0.00 96 1021.8
20260831055929 62 265 0.0 0.0 0.00 0.00 0.00 96 1021.8
20260831055852 62 265 0.0 0.0 0.00 0.00 0.00 96 1021.8
20260831055831 62 265 0.0 0.0 0.00 0.00 0.00 96 1021.7
20260831055350 62 265 0.0 0.0 0.00 0.00 0.00 96 1021.7
20260831055050 61 265 0.0 0.0 0.00 0.00 0.00 96 1021.8
20260831054816 62 265 0.0 0.0 0.00 0.00 0.00 96 1021.7
20260831054721 62 265 0.0 0.0 0.00 0.00 0.00 96 1021.7
20260831054704 62 265 0.0 0.0 0.00 0.00 0.00 96 1021.7
20260831054625 62 265 0.0 0.0 0.00 0.00 0.00 96 1021.7
20260831054432 62 265 0.0 0.0 0.00 0.00 0.00 96 1021.7
20260831054142 62 265 0.0 0.0 0.00 0.00 0.00 96 1021.7
20260831053945 62 265 0.0 0.0 0.00 0.00 0.00 96 1021.7
20260831053857 62 265 0.0 0.0 0.00 0.00 0.00 96 1021.7
20260831053841 62 265 0.0 0.0 0.00 0.00 0.00 96 1021.7
20260831053343 61 265 0.0 0.0 0.00 0.00 0.00 96 1021.6
20260831053301 61 265 0.0 0.0 0.00 0.00 0.00 95 1021.6
20260831052810 61 265 0.0 0.0 0.00 0.00 0.00 95 1021.6
20260831052640 62 265 0.0 0.0 0.00 0.00 0.00 95 1021.6
20260831052623 62 265 0.0 0.0 0.00 0.00 0.00 95 1021.6
20260831052541 62 265 0.0 0.0 0.00 0.00 0.00 95 1021.5
20260831052027 62 265 0.0 0.0 0.00 0.00 0.00 96 1021.5
20260831051814 62 265 0.0 0.0 0.00 0.00 0.00 96 1021.5
20260831051743 67 265 0.0 2.0 0.00 0.00 0.00 91 1021.6
20260831051648 67 284 0.0 0.0 0.00 0.00 0.00 91 1021.6
20260831051634 67 284 0.0 0.0 0.00 0.00 0.00 91 1021.6
20260831051614 62 265 0.0 0.0 0.00 0.00 0.00 96 1021.5
20260831051545 62 265 0.0 0.0 0.00 0.00 0.00 96 1021.5
20260831051512 67 284 0.0 0.0 0.00 0.00 0.00 90 1021.5
20260831051431 62 265 0.0 0.0 0.00 0.00 0.00 96 1021.5
20260831051254 67 284 0.0 0.0 0.00 0.00 0.00 90 1021.5
20260831051243 68 284 0.0 0.0 0.00 0.00 0.00 90 1021.5
20260831051213 62 265 0.0 0.0 0.00 0.00 0.00 95 1021.4
20260831051147 68 284 0.0 0.0 0.00 0.00 0.00 89 1021.5
20260831051036 62 265 0.0 0.0 0.00 0.00 0.00 95 1021.4
20260831050807 62 265 0.0 0.0 0.00 0.00 0.00 95 1021.4
20260831050739 68 284 0.0 0.0 0.00 0.00 0.00 89 1021.5
20260831050714 68 284 0.0 0.0 0.00 0.00 0.00 88 1021.7
20260831050615 62 265 0.0 0.0 0.00 0.00 0.00 95 1021.4
20260831050551 62 265 0.0 0.0 0.00 0.00 0.00 95 1021.4
20260831050504 62 265 0.0 0.0 0.00 0.00 0.00 95 1021.4
20260831050336 62 265 0.0 0.0 0.00 0.00 0.00 95 1021.3
20260831050012 62 265 0.0 0.0 0.00 0.00 0.00 95 1021.3
20260831045811 62 265 0.0 0.0 0.00 0.00 0.00 95 1021.4
20260831045756 69 284 0.0 0.0 0.00 0.00 0.00 86 1021.7
20260831045707 69 284 0.0 0.0 0.00 0.00 0.00 86 1021.7
20260831045629 62 265 0.0 0.0 0.00 0.00 0.00 95 1021.4
20260831045614 62 265 0.0 0.0 0.00 0.00 0.00 95 1021.3
20260831045518 62 265 0.0 0.0 0.00 0.00 0.00 95 1021.3
20260831045312 62 265 0.0 0.0 0.00 0.00 0.00 95 1021.4
20260831045221 62 265 0.0 0.0 0.00 0.00 0.00 95 1021.3
20260831044613 63 265 0.0 0.0 0.00 0.00 0.00 95 1021.4
20260831044539 63 265 0.0 0.0 0.00 0.00 0.00 95 1021.4
20260831044433 63 265 0.0 0.0 0.00 0.00 0.00 95 1021.5
20260831044307 69 284 0.0 1.0 0.00 0.00 0.00 86 1021.7
20260831044210 63 265 0.0 0.0 0.00 0.00 0.00 95 1021.5
20260831044009 63 265 0.0 0.0 0.00 0.00 0.00 95 1021.4
20260831043811 62 265 0.0 0.0 0.00 0.00 0.00 95 1021.4
20260831043759 69 284 0.0 1.0 0.00 0.00 0.00 86 1021.7
20260831043718 69 256 0.0 0.0 0.00 0.00 0.00 86 1021.7
20260831043654 69 256 0.0 0.0 0.00 0.00 0.00 85 1021.7
20260831043610 62 265 0.0 0.0 0.00 0.00 0.00 95 1021.4
20260831043531 62 265 0.0 0.0 0.00 0.00 0.00 95 1021.4
20260831043435 62 265 0.0 0.0 0.00 0.00 0.00 95 1021.4
20260831043207 62 265 0.0 0.0 0.00 0.00 0.00 95 1021.4
20260831043048 63 265 0.0 0.0 0.00 0.00 0.00 95 1021.4
20260831042846 63 265 0.0 0.0 0.00 0.00 0.00 95 1021.4
20260831042807 63 265 0.0 0.0 0.00 0.00 0.00 95 1021.4
20260831042748 63 265 0.0 0.0 0.00 0.00 0.00 95 1021.4
20260831042711 63 265 0.0 0.0 0.00 0.00 0.00 95 1021.4
20260831042540 63 265 0.0 0.0 0.00 0.00 0.00 95 1021.4
20260831042456 63 265 0.0 0.0 0.00 0.00 0.00 95 1021.4
20260831041742 63 265 0.0 0.0 0.00 0.00 0.00 95 1021.4
20260831041715 63 265 0.0 0.0 0.00 0.00 0.00 95 1021.3
20260831041415 63 265 0.0 0.0 0.00 0.00 0.00 95 1021.4
20260831041322 63 265 0.0 0.0 0.00 0.00 0.00 94 1021.4
20260831040732 63 265 0.0 0.0 0.00 0.00 0.00 94 1021.4
20260831040603 63 265 0.0 0.0 0.00 0.00 0.00 95 1021.4
20260831040447 63 265 0.0 0.0 0.00 0.00 0.00 95 1021.4
20260831040011 63 265 0.0 0.0 0.00 0.00 0.00 94 1021.6
20260831035931 63 265 0.0 0.0 0.00 0.00 0.00 94 1021.5
20260831035529 63 265 0.0 0.0 0.00 0.00 0.00 94 1021.5
20260831035435 63 265 0.0 0.0 0.00 0.00 0.00 94 1021.5
20260831035346 63 265 0.0 0.0 0.00 0.00 0.00 94 1021.6
20260831035316 63 265 0.0 0.0 0.00 0.00 0.00 94 1021.5
20260831035004 63 265 0.0 0.0 0.00 0.00 0.00 93 1021.5
20260831034910 63 265 0.0 0.0 0.00 0.00 0.00 94 1021.5
20260831034556 63 265 0.0 0.0 0.00 0.00 0.00 94 1021.5
20260831034140 64 265 0.0 0.0 0.00 0.00 0.00 94 1021.5
20260831034059 64 265 0.0 0.0 0.00 0.00 0.00 94 1021.6
20260831033150 64 265 0.0 0.0 0.00 0.00 0.00 94 1021.7
20260831032616 64 265 0.0 0.0 0.00 0.00 0.00 93 1021.5
20260831032513 64 265 0.0 0.0 0.00 0.00 0.00 93 1021.6
20260831032420 64 265 0.0 0.0 0.00 0.00 0.00 93 1021.6
20260831032250 64 265 0.0 0.0 0.00 0.00 0.00 93 1021.6
20260831032159 64 265 0.0 0.0 0.00 0.00 0.00 93 1021.5
20260831031838 64 265 0.0 0.0 0.00 0.00 0.00 93 1021.6
20260831031651 64 265 0.0 0.0 0.00 0.00 0.00 93 1021.5
20260831031618 64 265 0.0 0.0 0.00 0.00 0.00 93 1021.5
20260831031527 64 265 0.0 0.0 0.00 0.00 0.00 93 1021.5
20260831031350 64 265 0.0 0.0 0.00 0.00 0.00 93 1021.5
20260831031257 64 265 0.0 0.0 0.00 0.00 0.00 93 1021.5
20260831031006 64 265 0.0 0.0 0.00 0.00 0.00 93 1021.5
20260831030511 64 265 0.0 0.0 0.00 0.00 0.00 93 1021.5
20260831030409 64 265 0.0 0.0 0.00 0.00 0.00 93 1021.5
20260831030208 64 265 0.0 0.0 0.00 0.00 0.00 93 1021.5
20260831030152 69 256 0.0 0.0 0.00 0.00 0.00 85 1021.5
20260831030008 64 265 0.0 0.0 0.00 0.00 0.00 93 1021.4
20260831025829 65 265 0.0 0.0 0.00 0.00 0.00 93 1021.5
20260831025702 69 256 0.0 0.0 0.00 0.00 0.00 83 1021.5
20260831025644 69 256 0.0 0.0 0.00 0.00 0.00 83 1021.5
20260831025609 65 265 0.0 0.0 0.00 0.00 0.00 93 1021.6
20260831025503 65 265 0.0 0.0 0.00 0.00 0.00 93 1021.6
20260831025417 65 265 0.0 0.0 0.00 0.00 0.00 93 1021.6
20260831025209 65 265 0.0 0.0 0.00 0.00 0.00 93 1021.5
20260831025127 69 256 0.0 0.0 0.00 0.00 0.00 83 1021.5
20260831025112 69 256 0.0 0.0 0.00 0.00 0.00 83 1021.3
20260831025021 65 265 0.0 0.0 0.00 0.00 0.00 93 1021.5
20260831024927 69 256 0.0 0.0 0.00 0.00 0.00 83 1021.2
20260831024843 65 265 0.0 0.0 0.00 0.00 0.00 93 1021.5
20260831024655 69 256 0.0 0.0 0.00 0.00 0.00 82 1021.1
20260831024608 65 265 0.0 0.0 0.00 0.00 0.00 93 1021.5
20260831024512 65 265 0.0 0.0 0.00 0.00 0.00 93 1021.6
20260831024454 65 265 0.0 0.0 0.00 0.00 0.00 93 1021.6
20260831024325 65 265 0.0 0.0 0.00 0.00 0.00 93 1021.5
20260831024240 65 265 0.0 0.0 0.00 0.00 0.00 93 1021.5
20260831024232 65 265 0.0 0.0 0.00 0.00 0.00 93 1021.5
20260831023755 65 265 0.0 0.0 0.00 0.00 0.00 93 1021.5
20260831023722 65 265 0.0 0.0 0.00 0.00 0.00 93 1021.6
20260831023659 65 265 0.0 0.0 0.00 0.00 0.00 93 1021.5
20260831023542 65 265 0.0 0.0 0.00 0.00 0.00 93 1021.5
20260831023502 65 265 0.0 0.0 0.00 0.00 0.00 93 1021.6
20260831023141 65 265 0.0 0.0 0.00 0.00 0.00 93 1021.5
20260831022715 65 265 0.0 0.0 0.00 0.00 0.00 93 1021.5
20260831022659 65 265 0.0 0.0 0.00 0.00 0.00 93 1021.6
20260831022209 65 265 0.0 0.0 0.00 0.00 0.00 93 1021.5
20260831021828 65 265 0.0 0.0 0.00 0.00 0.00 93 1021.5
20260831021654 69 256 0.0 0.0 0.00 0.00 0.00 81 1021.0
20260831021613 65 265 0.0 0.0 0.00 0.00 0.00 93 1021.6
20260831021417 65 265 0.0 0.0 0.00 0.00 0.00 93 1021.6
20260831021218 65 265 0.0 0.0 0.00 0.00 0.00 93 1021.6
20260831021113 65 265 0.0 0.0 0.00 0.00 0.00 92 1021.5
20260831021052 65 265 0.0 0.0 0.00 0.00 0.00 92 1021.5
20260831020707 69 256 0.0 0.0 0.00 0.00 0.00 81 1021.0
20260831020629 69 256 0.0 0.0 0.00 0.00 0.00 81 1021.0
20260831020608 65 265 0.0 0.0 0.00 0.00 0.00 93 1021.5
20260831020446 65 265 0.0 0.0 0.00 0.00 0.00 92 1021.5
20260831020421 66 265 0.0 0.0 0.00 0.00 0.00 92 1021.5
20260831020240 66 265 0.0 0.0 0.00 0.00 0.00 92 1021.6
20260831020147 66 265 0.0 0.0 0.00 0.00 0.00 92 1021.5
20260831015906 69 256 0.0 0.0 0.00 0.00 0.00 81 1020.8
20260831015828 66 265 0.0 0.0 0.00 0.00 0.00 92 1021.6
20260831015633 69 256 0.0 0.0 0.00 0.00 0.00 80 1020.9
20260831015559 66 265 0.0 0.0 0.00 0.00 0.00 92 1021.6
20260831015439 66 265 0.0 0.0 0.00 0.00 0.00 92 1021.5
20260831015423 66 265 0.0 0.0 0.00 0.00 0.00 92 1021.5
20260831015251 66 265 0.0 0.0 0.00 0.00 0.00 92 1021.6
20260831015139 66 265 0.0 0.0 0.00 0.00 0.00 92 1021.5
20260831015120 66 265 0.0 0.0 0.00 0.00 0.00 92 1021.6
20260831015043 66 265 0.0 0.0 0.00 0.00 0.00 92 1021.6
20260831014903 66 265 0.0 0.0 0.00 0.00 0.00 92 1021.6
20260831014553 66 265 0.0 0.0 0.00 0.00 0.00 92 1021.5
20260831014109 66 265 0.0 0.0 0.00 0.00 0.00 92 1021.6
20260831014040 66 265 0.0 0.0 0.00 0.00 0.00 92 1021.5
20260831013551 66 265 0.0 0.0 0.00 0.00 0.00 92 1021.5
20260831013538 66 265 0.0 0.0 0.00 0.00 0.00 92 1021.5
20260831013054 66 265 0.0 0.0 0.00 0.00 0.00 92 1021.5
20260831013038 66 265 0.0 0.0 0.00 0.00 0.00 92 1021.4
20260831013005 66 265 0.0 0.0 0.00 0.00 0.00 92 1021.6
20260831012610 66 265 0.0 0.0 0.00 0.00 0.00 91 1021.6
20260831012515 66 265 0.0 0.0 0.00 0.00 0.00 92 1021.7
20260831012501 66 265 0.0 0.0 0.00 0.00 0.00 92 1021.6
20260831012307 66 265 0.0 2.0 0.00 0.00 0.00 92 1021.7
20260831011934 67 265 0.0 2.0 0.00 0.00 0.00 91 1021.7
20260831011841 67 265 0.0 2.0 0.00 0.00 0.00 91 1021.7
20260831011708 67 265 0.0 2.0 0.00 0.00 0.00 91 1021.6
20260831011347 67 265 0.0 2.0 0.00 0.00 0.00 91 1021.5
20260831011148 67 284 0.0 0.0 0.00 0.00 0.00 91 1021.6
20260831011027 67 284 0.0 0.0 0.00 0.00 0.00 91 1021.6
20260831011010 67 284 0.0 0.0 0.00 0.00 0.00 91 1021.7
20260831010930 67 284 0.0 0.0 0.00 0.00 0.00 91 1021.6
20260831010755 67 284 0.0 0.0 0.00 0.00 0.00 91 1021.6
20260831010454 67 284 0.0 0.0 0.00 0.00 0.00 91 1021.6
20260831010303 67 284 0.0 0.0 0.00 0.00 0.00 91 1021.6
20260831005932 67 284 0.0 0.0 0.00 0.00 0.00 91 1021.7
20260831005845 67 284 0.0 0.0 0.00 0.00 0.00 91 1021.6
20260831005713 67 284 0.0 0.0 0.00 0.00 0.00 91 1021.6
20260831005422 67 284 0.0 0.0 0.00 0.00 0.00 90 1021.7
20260831005341 67 284 0.0 0.0 0.00 0.00 0.00 90 1021.6
20260831005215 67 284 0.0 0.0 0.00 0.00 0.00 90 1021.5
20260831005050 67 284 0.0 0.0 0.00 0.00 0.00 90 1021.5
20260831004523 67 284 0.0 0.0 0.00 0.00 0.00 90 1021.5
20260831004451 67 284 0.0 0.0 0.00 0.00 0.00 90 1021.4
20260831004427 67 284 0.0 0.0 0.00 0.00 0.00 90 1021.5
20260831004306 67 284 0.0 0.0 0.00 0.00 0.00 90 1021.6
20260831004218 67 284 0.0 0.0 0.00 0.00 0.00 90 1021.5
20260831003909 67 284 0.0 0.0 0.00 0.00 0.00 90 1021.5
20260831003406 68 284 0.0 0.0 0.00 0.00 0.00 90 1021.6
20260831003318 68 284 0.0 0.0 0.00 0.00 0.00 89 1021.6
20260831003110 68 284 0.0 0.0 0.00 0.00 0.00 89 1021.5
20260831002957 68 284 0.0 0.0 0.00 0.00 0.00 89 1021.6
20260831002917 68 284 0.0 0.0 0.00 0.00 0.00 89 1021.6
20260831002718 68 284 0.0 0.0 0.00 0.00 0.00 89 1021.6
20260831002404 68 284 0.0 0.0 0.00 0.00 0.00 89 1021.7
20260831002218 68 284 0.0 0.0 0.00 0.00 0.00 89 1021.5
20260831001916 68 284 0.0 0.0 0.00 0.00 0.00 89 1021.5
20260831001748 68 284 0.0 0.0 0.00 0.00 0.00 88 1021.5
20260831001507 68 284 0.0 0.0 0.00 0.00 0.00 88 1021.6
20260831001418 68 284 0.0 0.0 0.00 0.00 0.00 89 1021.7
20260831001343 68 284 0.0 0.0 0.00 0.00 0.00 88 1021.7
20260831001146 68 284 0.0 0.0 0.00 0.00 0.00 88 1021.5
20260831001042 68 284 0.0 0.0 0.00 0.00 0.00 88 1021.7
20260831000504 68 284 0.0 0.0 0.00 0.00 0.00 88 1021.8
20260831000425 70 256 0.0 0.0 0.00 0.00 0.00 79 1020.8
20260831000410 68 284 0.0 0.0 0.00 0.00 0.00 88 1021.7
20260831000318 68 284 0.0 0.0 0.00 0.00 0.00 88 1021.7
20260831000107 68 284 0.0 0.0 0.00 0.00 0.00 88 1021.7
20260830235931 68 284 0.0 0.0 0.00 0.00 0.00 88 1021.6
20260830235921 68 284 0.0 0.0 0.00 0.00 0.00 88 1021.6
20260830235831 68 284 0.0 0.0 0.00 0.00 0.00 88 1021.7
20260830235710 68 284 0.0 0.0 0.00 0.00 0.00 87 1021.7
20260830235438 70 256 0.0 0.0 0.00 0.00 0.00 79 1020.7
20260830235355 68 284 0.0 0.0 0.00 0.00 0.00 87 1021.7
20260830235314 68 284 0.0 0.0 0.00 0.00 0.00 87 1021.7
20260830235107 68 284 0.0 0.0 0.00 0.00 0.00 87 1021.7
20260830234910 68 284 0.0 0.0 0.00 0.00 0.00 87 1021.8
20260830234846 68 284 0.0 0.0 0.00 0.00 0.00 87 1021.8
20260830234747 68 284 0.0 0.0 0.00 0.00 0.00 87 1021.7
20260830234552 69 284 0.0 0.0 0.00 0.00 0.00 87 1021.7
20260830234517 68 284 0.0 0.0 0.00 0.00 0.00 87 1021.7
20260830234459 69 284 0.0 0.0 0.00 0.00 0.00 87 1021.7
20260830234333 69 284 0.0 0.0 0.00 0.00 0.00 87 1021.8
20260830234237 69 284 0.0 0.0 0.00 0.00 0.00 86 1021.7
20260830234221 69 284 0.0 0.0 0.00 0.00 0.00 86 1021.7
20260830234145 69 284 0.0 0.0 0.00 0.00 0.00 86 1021.7
20260830234033 69 284 0.0 0.0 0.00 0.00 0.00 86 1021.7
20260830233933 69 284 0.0 0.0 0.00 0.00 0.00 86 1021.7
20260830233108 69 284 0.0 1.0 0.00 0.00 0.00 86 1021.7
20260830232640 69 284 0.0 1.0 0.00 0.00 0.00 86 1021.7
20260830232531 69 284 0.0 1.0 0.00 0.00 0.00 86 1021.8
20260830232404 69 284 0.0 1.0 0.00 0.00 0.00 86 1021.7
20260830232249 69 256 0.0 0.0 0.00 0.00 0.00 86 1021.8
20260830231712 69 256 0.0 0.0 0.00 0.00 0.00 85 1021.7
20260830231536 69 256 0.0 0.0 0.00 0.00 0.00 85 1021.6
20260830231356 69 256 0.0 0.0 0.00 0.00 0.00 85 1021.7
20260830231313 69 256 0.0 0.0 0.00 0.00 0.00 85 1021.7
20260830231114 69 256 0.0 0.0 0.00 0.00 0.00 85 1021.7
20260830231055 69 256 0.0 0.0 0.00 0.00 0.00 85 1021.6
20260830230619 69 256 0.0 0.0 0.00 0.00 0.00 85 1021.6
20260830230536 69 256 0.0 0.0 0.00 0.00 0.00 85 1021.7
20260830230210 69 256 0.0 0.0 0.00 0.00 0.00 85 1021.6
20260830230020 69 256 0.0 0.0 0.00 0.00 0.00 85 1021.6
20260830230004 69 256 0.0 0.0 0.00 0.00 0.00 85 1021.6
20260830225503 69 256 0.0 0.0 0.00 0.00 0.00 84 1021.5
20260830225403 70 250 0.0 4.0 0.00 0.00 0.00 78 1020.6
20260830225309 69 256 0.0 0.0 0.00 0.00 0.00 84 1021.6
20260830225207 69 256 0.0 0.0 0.00 0.00 0.00 84 1021.6
20260830225009 70 269 4.0 7.0 0.00 0.00 0.00 76 1020.4
20260830224910 69 256 0.0 0.0 0.00 0.00 0.00 84 1021.5
20260830224832 69 256 0.0 0.0 0.00 0.00 0.00 84 1021.4
20260830224737 69 256 0.0 0.0 0.00 0.00 0.00 84 1021.4
20260830224526 69 256 0.0 0.0 0.00 0.00 0.00 84 1021.5
20260830224456 70 263 2.0 7.0 0.00 0.00 0.00 77 1020.4
20260830224332 69 256 0.0 0.0 0.00 0.00 0.00 84 1021.5
20260830224309 69 256 0.0 0.0 0.00 0.00 0.00 84 1021.6
20260830224249 70 270 5.0 8.0 0.00 0.00 0.00 76 1020.3
20260830224203 69 256 0.0 0.0 0.00 0.00 0.00 84 1021.5
20260830223940 69 256 0.0 0.0 0.00 0.00 0.00 84 1021.5
20260830223920 69 256 0.0 0.0 0.00 0.00 0.00 84 1021.6
20260830223848 69 256 0.0 0.0 0.00 0.00 0.00 84 1021.6
20260830223642 69 256 0.0 0.0 0.00 0.00 0.00 84 1021.5
20260830223536 69 256 0.0 0.0 0.00 0.00 0.00 84 1021.5
20260830223451 69 256 0.0 0.0 0.00 0.00 0.00 84 1021.5
20260830223257 69 256 0.0 0.0 0.00 0.00 0.00 84 1021.5
20260830223237 69 256 0.0 0.0 0.00 0.00 0.00 84 1021.4
20260830223205 69 256 0.0 0.0 0.00 0.00 0.00 84 1021.5
20260830223102 69 256 0.0 0.0 0.00 0.00 0.00 83 1021.5
20260830223024 69 256 0.0 0.0 0.00 0.00 0.00 84 1021.4
20260830223007 69 256 0.0 0.0 0.00 0.00 0.00 84 1021.5
20260830222420 69 256 0.0 0.0 0.00 0.00 0.00 83 1021.4
20260830222348 69 256 0.0 0.0 0.00 0.00 0.00 83 1021.4
20260830222305 69 256 0.0 0.0 0.00 0.00 0.00 83 1021.4
20260830221957 69 256 0.0 0.0 0.00 0.00 0.00 83 1021.4
20260830221924 69 256 0.0 0.0 0.00 0.00 0.00 83 1021.4
20260830221838 69 256 0.0 0.0 0.00 0.00 0.00 83 1021.4
20260830221819 69 256 0.0 0.0 0.00 0.00 0.00 83 1021.3
20260830221758 69 256 0.0 0.0 0.00 0.00 0.00 83 1021.4
20260830221424 69 256 0.0 0.0 0.00 0.00 0.00 83 1021.3
20260830221350 69 256 0.0 0.0 0.00 0.00 0.00 83 1021.3
20260830221304 69 256 0.0 0.0 0.00 0.00 0.00 83 1021.3
20260830221252 69 256 0.0 0.0 0.00 0.00 0.00 83 1021.3
20260830220920 69 256 0.0 0.0 0.00 0.00 0.00 83 1021.3
20260830220829 69 256 0.0 0.0 0.00 0.00 0.00 83 1021.2
20260830220740 69 256 0.0 0.0 0.00 0.00 0.00 82 1021.1
20260830220631 69 256 0.0 0.0 0.00 0.00 0.00 82 1021.3
20260830220323 69 256 0.0 0.0 0.00 0.00 0.00 82 1021.1
20260830220228 69 256 0.0 0.0 0.00 0.00 0.00 82 1021.2
20260830220132 69 256 0.0 0.0 0.00 0.00 0.00 82 1021.2
20260830220103 69 256 0.0 0.0 0.00 0.00 0.00 82 1021.1
20260830215957 69 256 0.0 0.0 0.00 0.00 0.00 82 1021.1
20260830215940 69 256 0.0 0.0 0.00 0.00 0.00 82 1021.1
20260830215911 69 256 0.0 0.0 0.00 0.00 0.00 82 1021.1
20260830215825 69 256 0.0 0.0 0.00 0.00 0.00 82 1021.1
20260830215536 69 256 0.0 0.0 0.00 0.00 0.00 81 1021.0
20260830215458 69 256 0.0 0.0 0.00 0.00 0.00 81 1021.0
20260830215357 69 256 0.0 0.0 0.00 0.00 0.00 81 1021.0
20260830215326 69 256 0.0 0.0 0.00 0.00 0.00 81 1021.0
20260830215255 69 256 0.0 0.0 0.00 0.00 0.00 81 1021.0
20260830215216 69 256 0.0 0.0 0.00 0.00 0.00 81 1021.0
20260830214633 69 256 0.0 0.0 0.00 0.00 0.00 81 1020.9
20260830214530 69 256 0.0 0.0 0.00 0.00 0.00 81 1021.0
20260830214506 69 256 0.0 0.0 0.00 0.00 0.00 81 1020.9
20260830214441 69 256 0.0 0.0 0.00 0.00 0.00 81 1020.9
20260830214357 69 256 0.0 0.0 0.00 0.00 0.00 81 1020.8
20260830214058 69 256 0.0 0.0 0.00 0.00 0.00 81 1020.8
20260830214013 69 256 0.0 0.0 0.00 0.00 0.00 80 1020.8
20260830213429 69 256 0.0 0.0 0.00 0.00 0.00 80 1020.8
20260830213328 69 256 0.0 0.0 0.00 0.00 0.00 80 1020.8
20260830213233 70 256 0.0 0.0 0.00 0.00 0.00 80 1020.8
20260830212936 70 256 0.0 0.0 0.00 0.00 0.00 80 1020.8
20260830212842 70 256 0.0 0.0 0.00 0.00 0.00 79 1020.8
20260830212551 70 256 0.0 0.0 0.00 0.00 0.00 79 1020.8
20260830211947 70 256 0.0 0.0 0.00 0.00 0.00 79 1020.7
20260830211903 70 256 0.0 0.0 0.00 0.00 0.00 79 1020.7
20260830211819 70 256 0.0 1.0 0.00 0.00 0.00 79 1020.8
20260830211752 70 256 0.0 1.0 0.00 0.00 0.00 79 1020.7
20260830211418 70 256 0.0 1.0 0.00 0.00 0.00 79 1020.7
20260830211336 70 256 0.0 3.0 0.00 0.00 0.00 79 1020.6
20260830211330 70 256 0.0 3.0 0.00 0.00 0.00 79 1020.6
20260830211238 70 256 0.0 3.0 0.00 0.00 0.00 78 1020.7
20260830211104 70 256 0.0 3.0 0.00 0.00 0.00 78 1020.6
20260830211023 70 256 1.0 4.0 0.00 0.00 0.00 78 1020.7
20260830210854 70 256 1.0 4.0 0.00 0.00 0.00 78 1020.6
20260830210525 70 250 0.0 4.0 0.00 0.00 0.00 78 1020.6
20260830210423 70 250 1.0 4.0 0.00 0.00 0.00 78 1020.6
20260830210257 70 247 3.0 5.0 0.00 0.00 0.00 78 1020.6
20260830210231 70 273 3.0 5.0 0.00 0.00 0.00 78 1020.7
20260830210115 70 250 3.0 7.0 0.00 0.00 0.00 77 1020.5
20260830205932 70 267 3.0 7.0 0.00 0.00 0.00 77 1020.5
20260830205819 70 257 3.0 7.0 0.00 0.00 0.00 77 1020.5
20260830205745 70 282 3.0 7.0 0.00 0.00 0.00 77 1020.6
20260830205605 70 253 3.0 7.0 0.00 0.00 0.00 77 1020.4
20260830205431 70 269 4.0 7.0 0.00 0.00 0.00 77 1020.4
20260830205356 70 272 3.0 7.0 0.00 0.00 0.00 77 1020.4
20260830205240 70 267 2.0 7.0 0.00 0.00 0.00 77 1020.5
20260830205103 70 275 2.0 7.0 0.00 0.00 0.00 77 1020.4
20260830204712 70 287 4.0 7.0 0.00 0.00 0.00 76 1020.5
20260830204150 70 235 2.0 7.0 0.00 0.00 0.00 77 1020.4
20260830204125 70 271 3.0 7.0 0.00 0.00 0.00 77 1020.4
20260830204016 70 261 4.0 7.0 0.00 0.00 0.00 76 1020.3
20260830203836 70 241 4.0 7.0 0.00 0.00 0.00 76 1020.3
20260830203719 70 265 4.0 7.0 0.00 0.00 0.00 76 1020.3
20260830203647 70 264 4.0 7.0 0.00 0.00 0.00 76 1020.3
20260830203130 70 281 4.0 8.0 0.00 0.00 0.00 76 1020.2
20260830203057 70 268 4.0 8.0 0.00 0.00 0.00 76 1020.2
20260830202940 70 298 5.0 8.0 0.00 0.00 0.00 76 1020.2
20260830202804 70 271 4.0 8.0 0.00 0.00 0.00 76 1020.3
20260830202647 70 263 6.0 8.0 0.00 0.00 0.00 76 1020.2
20260830202615 70 242 6.0 8.0 0.00 0.00 0.00 76 1020.3
20260830202429 71 259 4.0 8.0 0.00 0.00 0.00 76 1020.3
20260830202115 71 277 2.0 7.0 0.00 0.00 0.00 76 1020.2
20260830201953 71 246 3.0 7.0 0.00 0.00 0.00 76 1020.1
20260830201813 71 251 4.0 9.0 0.00 0.00 0.00 76 1020.1
20260830201659 71 257 4.0 9.0 0.00 0.00 0.00 76 1020.1
20260830201620 71 240 4.0 9.0 0.00 0.00 0.00 76 1020.0
20260830201204 71 281 5.0 9.0 0.00 0.00 0.00 76 1020.0
20260830201143 71 267 6.0 9.0 0.00 0.00 0.00 76 1020.0
20260830200350 71 265 5.0 10.0 0.00 0.00 0.00 76 1019.9
20260830200105 71 246 5.0 10.0 0.00 0.00 0.00 77 1019.9
20260830195930 71 263 6.0 10.0 0.00 0.00 0.00 77 1019.8
20260830195125 71 273 4.0 7.0 0.00 0.00 0.00 78 1019.7
20260830194950 71 269 3.0 7.0 0.00 0.00 0.00 78 1019.7
20260830194936 71 257 4.0 7.0 0.00 0.00 0.00 78 1019.7
20260830194803 71 250 3.0 7.0 0.00 0.00 0.00 78 1019.6
20260830194618 71 279 1.0 6.0 0.00 0.00 0.00 78 1019.6
20260830194524 71 250 0.0 6.0 0.00 0.00 0.00 78 1019.6
20260830194431 71 254 0.0 7.0 0.00 0.00 0.00 78 1019.4
20260830194334 71 254 0.0 7.0 0.00 0.00 0.00 79 1019.4
20260830194244 71 254 3.0 7.0 0.00 0.00 0.00 79 1019.4
20260830194126 71 249 3.0 7.0 0.00 0.00 0.00 79 1019.4
20260830193710 71 276 3.0 8.0 0.00 0.00 0.00 79 1019.3
20260830193142 71 275 3.0 8.0 0.00 0.00 0.00 78 1019.2
20260830193002 71 263 4.0 8.0 0.00 0.00 0.00 78 1019.2
20260830192821 71 289 5.0 8.0 0.00 0.00 0.00 78 1019.2
20260830192722 71 265 5.0 8.0 0.00 0.00 0.00 78 1019.2
20260830192629 71 259 4.0 8.0 0.00 0.00 0.00 78 1019.1
20260830192451 71 273 4.0 7.0 0.00 0.00 0.00 78 1019.1
20260830192319 71 259 2.0 10.0 0.00 0.00 0.00 78 1019.1
20260830191922 71 285 3.0 10.0 0.00 0.00 0.00 77 1019.1
20260830191746 71 305 4.0 10.0 0.00 0.00 0.00 77 1019.1
20260830191354 71 254 3.0 10.0 0.00 0.00 0.00 77 1019.1
20260830191216 71 281 4.0 10.0 0.00 0.00 0.00 77 1019.1
20260830191041 71 286 3.0 7.0 0.00 0.00 0.00 77 1019.0
20260830191028 71 286 3.0 7.0 0.00 0.00 0.00 77 1019.0
20260830190846 71 302 3.0 7.0 0.00 0.00 0.00 77 1019.0
20260830190711 71 311 4.0 7.0 0.00 0.00 0.00 77 1019.0
20260830190628 71 307 4.0 7.0 0.00 0.00 0.00 77 1019.0
20260830190531 71 290 4.0 8.0 0.00 0.00 0.00 77 1019.0
20260830190033 72 288 4.0 11.0 0.00 0.00 0.00 77 1018.9
20260830190019 72 268 4.0 11.0 0.00 0.00 0.00 77 1019.0
20260830185838 72 284 3.0 11.0 0.00 0.00 0.00 77 1019.0
20260830185657 72 309 6.0 11.0 0.00 0.00 0.00 77 1019.0
20260830185615 72 309 7.0 11.0 0.00 0.00 0.00 77 1019.0
20260830185513 72 304 6.0 11.0 0.00 0.00 0.00 78 1018.9
20260830185319 71 307 4.0 8.0 0.00 0.00 0.00 78 1018.9
20260830185147 72 294 3.0 8.0 0.00 0.00 0.00 79 1018.9
20260830185129 72 284 3.0 8.0 0.00 0.00 0.00 79 1018.9
20260830184335 72 298 3.0 9.0 0.00 0.00 0.00 80 1018.8
20260830184211 72 306 5.0 12.0 0.00 0.00 0.00 80 1018.9
20260830184152 72 309 5.0 12.0 0.00 0.00 0.00 80 1018.9
20260830183546 72 309 5.0 12.0 0.00 0.00 0.00 79 1018.8
20260830183431 72 293 6.0 12.0 0.00 0.00 0.00 79 1018.8
20260830183249 72 290 7.0 12.0 0.00 0.00 0.00 79 1018.8
20260830183128 72 286 6.0 12.0 0.00 0.00 0.00 79 1018.8
20260830183101 72 282 6.0 13.0 0.00 0.00 0.00 79 1018.8
20260830182920 72 257 5.0 13.0 0.00 0.00 0.00 79 1018.7
20260830182742 72 284 7.0 13.0 0.00 0.00 0.00 79 1018.7
20260830182715 72 200 8.0 13.0 0.00 0.00 0.00 79 1018.7
20260830182235 72 308 8.0 13.0 0.00 0.00 0.00 78 1018.6
20260830182109 73 292 7.0 13.0 0.00 0.00 0.00 78 1018.6
20260830182043 73 307 7.0 11.0 0.00 0.00 0.00 78 1018.5
20260830181905 73 253 2.0 10.0 0.00 0.00 0.00 78 1018.6
20260830181724 73 298 4.0 12.0 0.00 0.00 0.00 78 1018.5
20260830181654 73 303 5.0 12.0 0.00 0.00 0.00 78 1018.5
20260830180929 73 287 7.0 12.0 0.00 0.00 0.00 78 1018.5
20260830180525 73 267 5.0 12.0 0.00 0.00 0.00 78 1018.5
20260830180123 73 295 5.0 12.0 0.00 0.00 0.00 79 1018.3
20260830180052 73 293 5.0 12.0 0.00 0.00 0.00 79 1018.4
20260830175917 73 309 8.0 12.0 0.00 0.00 0.00 78 1018.2
20260830175636 73 286 5.0 9.0 0.00 0.00 0.00 79 1018.3
20260830175218 73 292 5.0 12.0 0.00 0.00 0.00 79 1018.2
20260830175110 73 309 4.0 12.0 0.00 0.00 0.00 79 1018.2
20260830175039 73 294 4.0 12.0 0.00 0.00 0.00 79 1018.2
20260830174901 73 299 4.0 12.0 0.00 0.00 0.00 79 1018.2
20260830174725 73 291 5.0 12.0 0.00 0.00 0.00 79 1018.2
20260830174656 73 308 5.0 12.0 0.00 0.00 0.00 79 1018.1
20260830174242 73 308 5.0 10.0 0.00 0.00 0.00 80 1018.2
20260830174125 73 290 3.0 10.0 0.00 0.00 0.00 80 1018.1
20260830174103 73 295 3.0 10.0 0.00 0.00 0.00 80 1018.2
20260830173929 73 310 3.0 10.0 0.00 0.00 0.00 80 1018.2
20260830173519 73 315 6.0 12.0 0.00 0.00 0.00 79 1018.1
20260830173341 73 298 6.0 12.0 0.00 0.00 0.00 79 1018.1
20260830172526 73 308 5.0 16.0 0.00 0.00 0.00 79 1018.2
20260830172452 73 336 6.0 16.0 0.00 0.00 0.00 79 1018.2
20260830172340 73 309 8.0 16.0 0.00 0.00 0.00 79 1018.2
20260830172159 73 270 10.0 16.0 0.00 0.00 0.00 78 1018.1
20260830172047 74 267 8.0 14.0 0.00 0.00 0.00 78 1018.2
20260830172015 74 288 8.0 14.0 0.00 0.00 0.00 78 1018.2
20260830171838 74 275 8.0 14.0 0.00 0.00 0.00 78 1018.1
20260830171703 74 295 9.0 15.0 0.00 0.00 0.00 78 1018.2
20260830171633 74 273 7.0 15.0 0.00 0.00 0.00 78 1018.2
20260830171516 74 309 7.0 15.0 0.00 0.00 0.00 78 1018.2
20260830171115 74 302 10.0 15.0 0.00 0.00 0.00 78 1018.1
20260830170940 74 263 11.0 15.0 0.00 0.00 0.00 77 1018.2
20260830170316 74 279 11.0 16.0 0.00 0.00 0.00 77 1018.1
20260830170133 74 244 8.0 16.0 0.00 0.00 0.00 77 1018.1
20260830170016 74 256 10.0 16.0 0.00 0.00 0.00 77 1018.1
20260830165944 74 304 10.0 16.0 0.00 0.00 0.00 77 1018.1
20260830165814 74 263 11.0 16.0 0.00 0.00 0.00 76 1018.1
20260830165632 75 309 10.0 16.0 0.00 0.00 0.00 77 1018.0
20260830165558 75 262 9.0 16.0 0.00 0.00 0.00 77 1018.0
20260830165443 75 285 9.0 16.0 0.00 0.00 0.00 77 1018.0
20260830165300 74 265 8.0 16.0 0.00 0.00 0.00 76 1018.0
20260830165143 75 283 11.0 17.0 0.00 0.00 0.00 76 1018.0
20260830165118 75 274 11.0 17.0 0.00 0.00 0.00 76 1017.9
20260830164718 75 265 10.0 18.0 0.00 0.00 0.00 76 1017.9
20260830164103 75 271 12.0 19.0 0.00 0.00 0.00 75 1017.9
20260830164026 75 260 12.0 19.0 0.00 0.00 0.00 75 1017.8
20260830163845 76 281 12.0 19.0 0.00 0.00 0.00 75 1017.8
20260830163342 76 302 10.0 17.0 0.00 0.00 0.00 75 1017.8
20260830163158 76 263 11.0 17.0 0.00 0.00 0.00 74 1017.7
20260830163045 76 252 8.0 17.0 0.00 0.00 0.00 74 1017.6
20260830163009 76 282 8.0 13.0 0.00 0.00 0.00 74 1017.5
20260830162830 77 242 8.0 13.0 0.00 0.00 0.00 73 1017.6
20260830162652 77 246 8.0 14.0 0.00 0.00 0.00 73 1017.6
20260830162619 77 246 8.0 14.0 0.00 0.00 0.00 72 1017.5
20260830162202 77 241 8.0 14.0 0.00 0.00 0.00 73 1017.5
20260830162043 77 259 9.0 14.0 0.00 0.00 0.00 73 1017.5
20260830162011 77 292 9.0 14.0 0.00 0.00 0.00 73 1017.5
20260830161830 77 313 11.0 19.0 0.00 0.00 0.00 72 1017.4
20260830161516 77 263 9.0 19.0 0.00 0.00 0.00 72 1017.4
20260830161358 77 265 10.0 19.0 0.00 0.00 0.00 72 1017.3
20260830161215 78 248 9.0 19.0 0.00 0.00 0.00 71 1017.2
20260830161055 78 265 10.0 19.0 0.00 0.00 0.00 71 1017.2
20260830161028 78 279 10.0 19.0 0.00 0.00 0.00 71 1017.3
20260830160837 78 236 11.0 19.0 0.00 0.00 0.00 71 1017.2
20260830160642 78 280 11.0 19.0 0.00 0.00 0.00 70 1017.1
20260830160246 78 281 10.0 18.0 0.00 0.00 0.00 71 1017.1
20260830155948 78 291 10.0 19.0 0.00 0.00 0.00 70 1017.0
20260830155809 78 276 12.0 19.0 0.00 0.00 0.00 70 1016.9
20260830155618 79 306 12.0 19.0 0.00 0.00 0.00 69 1017.0
20260830155551 79 277 13.0 19.0 0.00 0.00 0.00 69 1016.9
20260830155037 79 283 13.0 19.0 0.00 0.00 0.00 69 1016.9
20260830154914 79 306 10.0 18.0 0.00 0.00 0.00 69 1016.9
20260830154846 79 273 10.0 18.0 0.00 0.00 0.00 69 1016.9
20260830154704 79 314 12.0 18.0 0.00 0.00 0.00 68 1016.8
20260830154523 80 266 12.0 18.0 0.00 0.00 0.00 68 1016.7
20260830154450 80 282 11.0 18.0 0.00 0.00 0.00 68 1016.8
20260830154331 80 265 8.0 18.0 0.00 0.00 0.00 67 1016.7
20260830154151 80 311 11.0 18.0 0.00 0.00 0.00 67 1016.7
20260830154041 80 276 11.0 18.0 0.00 0.00 0.00 66 1016.7
20260830154004 80 288 11.0 18.0 0.00 0.00 0.00 66 1016.8
20260830153819 81 258 11.0 18.0 0.00 0.00 0.00 65 1016.6
20260830153635 81 294 8.0 18.0 0.00 0.00 0.00 66 1016.5
20260830153603 81 306 10.0 18.0 0.00 0.00 0.00 65 1016.5
20260830153133 81 317 7.0 19.0 0.00 0.00 0.00 66 1016.4
20260830153017 81 297 8.0 19.0 0.00 0.00 0.00 66 1016.4
20260830152950 81 302 8.0 19.0 0.00 0.00 0.00 65 1016.5
20260830152804 81 270 13.0 19.0 0.00 0.00 0.00 66 1016.4
20260830152629 81 261 12.0 19.0 0.00 0.00 0.00 66 1016.4
20260830152600 81 290 14.0 19.0 0.00 0.00 0.00 66 1016.4
20260830152057 82 279 15.0 19.0 0.00 0.00 0.00 65 1016.4
20260830151931 82 300 10.0 19.0 0.00 0.00 0.00 64 1016.4
20260830151858 82 263 10.0 19.0 0.00 0.00 0.00 64 1016.3
20260830151719 81 263 10.0 19.0 0.00 0.00 0.00 64 1016.2
20260830151539 81 271 12.0 19.0 0.00 0.00 0.00 64 1016.3
20260830151509 81 261 11.0 19.0 0.00 0.00 0.00 64 1016.3
20260830151349 81 270 11.0 19.0 0.00 0.00 0.00 63 1016.2
20260830151211 82 284 13.0 19.0 0.00 0.00 0.00 63 1016.2
20260830151054 82 266 9.0 19.0 0.00 0.00 0.00 62 1016.2
20260830151023 82 275 9.0 19.0 0.00 0.00 0.00 62 1016.1
20260830150839 82 278 13.0 19.0 0.00 0.00 0.00 60 1016.1
20260830150443 83 278 12.0 18.0 0.00 0.00 0.00 59 1016.0
20260830150114 83 267 7.0 16.0 0.00 0.00 0.00 60 1015.9
20260830145651 83 263 7.0 16.0 0.00 0.00 0.00 60 1015.9
20260830144926 83 275 10.0 18.0 0.00 0.00 0.00 60 1015.9
20260830144855 83 255 10.0 18.0 0.00 0.00 0.00 60 1015.8
20260830144717 83 284 8.0 18.0 0.00 0.00 0.00 60 1015.9
20260830144530 84 305 11.0 18.0 0.00 0.00 0.00 58 1015.8
20260830144455 84 289 9.0 18.0 0.00 0.00 0.00 58 1015.9
20260830144336 84 296 11.0 18.0 0.00 0.00 0.00 59 1015.8
20260830144141 85 279 12.0 18.0 0.00 0.00 0.00 58 1015.8
20260830144010 85 270 6.0 15.0 0.00 0.00 0.00 60 1015.8
20260830143947 85 283 6.0 15.0 0.00 0.00 0.00 60 1015.7
20260830143811 85 323 8.0 15.0 0.00 0.00 0.00 60 1015.7
20260830143631 85 269 7.0 15.0 0.00 0.00 0.00 59 1015.7
20260830143553 85 274 8.0 15.0 0.00 0.00 0.00 59 1015.6
20260830143101 85 272 6.0 13.0 0.00 0.00 0.00 60 1015.6
20260830142939 85 242 7.0 13.0 0.00 0.00 0.00 59 1015.7
20260830142916 84 246 7.0 13.0 0.00 0.00 0.00 59 1015.7
20260830142735 85 294 8.0 13.0 0.00 0.00 0.00 58 1015.7
20260830142309 84 290 6.0 13.0 0.00 0.00 0.00 60 1015.8
20260830142202 84 250 7.0 13.0 0.00 0.00 0.00 60 1015.8
20260830142022 84 270 8.0 13.0 0.00 0.00 0.00 61 1015.8
20260830141858 83 258 9.0 13.0 0.00 0.00 0.00 60 1015.8
20260830141834 83 253 9.0 13.0 0.00 0.00 0.00 60 1015.8
20260830141653 83 246 6.0 11.0 0.00 0.00 0.00 60 1015.8
20260830141513 83 267 6.0 11.0 0.00 0.00 0.00 60 1015.9
20260830141436 83 281 6.0 11.0 0.00 0.00 0.00 61 1015.8
20260830141323 83 275 8.0 11.0 0.00 0.00 0.00 61 1015.9
20260830141150 84 265 6.0 11.0 0.00 0.00 0.00 60 1015.9
20260830141023 84 280 4.0 11.0 0.00 0.00 0.00 60 1015.9
20260830140958 84 258 4.0 11.0 0.00 0.00 0.00 60 1015.9
20260830140816 83 261 4.0 11.0 0.00 0.00 0.00 61 1015.9
20260830140637 83 247 6.0 11.0 0.00 0.00 0.00 61 1015.9
20260830140034 84 286 4.0 11.0 0.00 0.00 0.00 61 1016.0
20260830135633 83 195 2.0 6.0 0.00 0.00 0.00 62 1016.1
20260830135219 83 290 3.0 6.0 0.00 0.00 0.00 62 1016.1
20260830135101 83 294 2.0 7.0 0.00 0.00 0.00 62 1016.1
20260830135038 83 352 1.0 7.0 0.00 0.00 0.00 62 1016.0
20260830134909 83 331 2.0 8.0 0.00 0.00 0.00 61 1016.1
20260830134516 83 301 3.0 8.0 0.00 0.00 0.00 61 1016.2
20260830133727 83 277 4.0 8.0 0.00 0.00 0.00 63 1016.2
20260830133654 83 279 4.0 8.0 0.00 0.00 0.00 62 1016.1
20260830133533 82 293 4.0 8.0 0.00 0.00 0.00 62 1016.2
20260830133342 82 284 3.0 8.0 0.00 0.00 0.00 62 1016.3
20260830133051 82 244 3.0 11.0 0.00 0.00 0.00 62 1016.2
20260830132911 82 236 2.0 11.0 0.00 0.00 0.00 62 1016.3
20260830132730 82 240 2.0 11.0 0.00 0.00 0.00 63 1016.3
20260830132659 82 242 2.0 11.0 0.00 0.00 0.00 63 1016.3
20260830132544 82 241 6.0 11.0 0.00 0.00 0.00 61 1016.3
20260830132354 82 274 6.0 11.0 0.00 0.00 0.00 61 1016.4
20260830132055 82 277 1.0 8.0 0.00 0.00 0.00 64 1016.3
20260830131923 81 186 1.0 8.0 0.00 0.00 0.00 63 1016.3
20260830131204 81 265 2.0 9.0 0.00 0.00 0.00 64 1016.4
20260830131136 81 242 3.0 9.0 0.00 0.00 0.00 64 1016.4
20260830130955 81 298 3.0 9.0 0.00 0.00 0.00 64 1016.4
20260830130658 81 273 3.0 9.0 0.00 0.00 0.00 63 1016.5
20260830130538 81 235 6.0 9.0 0.00 0.00 0.00 64 1016.4
20260830130054 81 311 2.0 8.0 0.00 0.00 0.00 65 1016.5
20260830125244 82 319 2.0 7.0 0.00 0.00 0.00 65 1016.5
20260830125151 82 307 3.0 7.0 0.00 0.00 0.00 65 1016.6
20260830125103 81 317 4.0 7.0 0.00 0.00 0.00 65 1016.6
20260830124927 81 287 1.0 7.0 0.00 0.00 0.00 65 1016.5
20260830124745 81 191 1.0 7.0 0.00 0.00 0.00 65 1016.5
20260830124254 81 264 3.0 7.0 0.00 0.00 0.00 66 1016.6
20260830124209 81 262 2.0 7.0 0.00 0.00 0.00 67 1016.6
20260830124116 81 309 3.0 7.0 0.00 0.00 0.00 66 1016.6
20260830123952 80 304 4.0 7.0 0.00 0.00 0.00 66 1016.6
20260830123807 80 261 1.0 8.0 0.00 0.00 0.00 67 1016.6
20260830123641 80 209 1.0 8.0 0.00 0.00 0.00 68 1016.6
20260830123506 80 168 2.0 8.0 0.00 0.00 0.00 67 1016.5
20260830123408 80 166 3.0 8.0 0.00 0.00 0.00 67 1016.6
20260830123321 80 183 3.0 8.0 0.00 0.00 0.00 67 1016.5
20260830122546 80 288 0.0 6.0 0.00 0.00 0.00 68 1016.5
20260830122425 79 169 0.0 6.0 0.00 0.00 0.00 68 1016.5
20260830122041 79 229 3.0 6.0 0.00 0.00 0.00 67 1016.6
20260830121719 79 263 3.0 6.0 0.00 0.00 0.00 67 1016.6
20260830121546 79 264 2.0 6.0 0.00 0.00 0.00 68 1016.7
20260830121406 79 319 2.0 6.0 0.00 0.00 0.00 68 1016.6
20260830121311 79 242 2.0 6.0 0.00 0.00 0.00 69 1016.5
20260830121220 79 300 2.0 6.0 0.00 0.00 0.00 69 1016.6
20260830120727 78 300 2.0 6.0 0.00 0.00 0.00 69 1016.6
20260830120557 78 15 2.0 6.0 0.00 0.00 0.00 69 1016.5
20260830120431 78 50 1.0 6.0 0.00 0.00 0.00 69 1016.6
20260830120134 78 101 3.0 6.0 0.00 0.00 0.00 69 1016.6
20260830115956 78 180 4.0 7.0 0.00 0.00 0.00 69 1016.6
20260830115808 78 111 2.0 7.0 0.00 0.00 0.00 70 1016.6
20260830115233 78 108 4.0 8.0 0.00 0.00 0.00 70 1016.7
20260830114841 78 105 4.0 8.0 0.00 0.00 0.00 70 1016.7
20260830114304 78 62 5.0 9.0 0.00 0.00 0.00 69 1016.8
20260830114133 79 47 3.0 10.0 0.00 0.00 0.00 70 1016.7
20260830113952 78 94 4.0 10.0 0.00 0.00 0.00 70 1016.8
20260830113601 78 76 4.0 10.0 0.00 0.00 0.00 71 1016.8
20260830113424 78 62 6.0 10.0 0.00 0.00 0.00 70 1016.8
20260830113239 78 84 4.0 10.0 0.00 0.00 0.00 71 1016.8
20260830113056 78 74 3.0 4.0 0.00 0.00 0.00 70 1016.8
20260830112925 78 51 1.0 6.0 0.00 0.00 0.00 71 1016.8
20260830112836 78 53 0.0 6.0 0.00 0.00 0.00 71 1016.8
20260830112747 78 57 0.0 6.0 0.00 0.00 0.00 71 1016.9
20260830112643 78 57 1.0 6.0 0.00 0.00 0.00 71 1016.9
20260830112513 78 89 4.0 6.0 0.00 0.00 0.00 70 1016.9
20260830112329 78 75 3.0 6.0 0.00 0.00 0.00 71 1016.9
20260830112157 78 51 3.0 6.0 0.00 0.00 0.00 71 1016.9
20260830112059 78 78 2.0 5.0 0.00 0.00 0.00 72 1016.9
20260830112006 78 34 1.0 9.0 0.00 0.00 0.00 72 1016.9
20260830111832 77 302 2.0 9.0 0.00 0.00 0.00 72 1016.9
20260830111659 77 134 1.0 9.0 0.00 0.00 0.00 72 1016.8
20260830111510 77 74 3.0 9.0 0.00 0.00 0.00 72 1017.0
20260830111334 77 75 5.0 9.0 0.00 0.00 0.00 73 1016.9
20260830111238 77 96 6.0 9.0 0.00 0.00 0.00 73 1017.0
20260830111145 77 63 6.0 9.0 0.00 0.00 0.00 73 1017.0
20260830110755 77 30 4.0 8.0 0.00 0.00 0.00 74 1016.8
20260830110352 76 68 4.0 6.0 0.00 0.00 0.00 75 1016.9
20260830110254 76 87 4.0 6.0 0.00 0.00 0.00 75 1017.0
20260830110143 76 42 3.0 6.0 0.00 0.00 0.00 76 1017.1
20260830105635 76 346 3.0 9.0 0.00 0.00 0.00 75 1017.1
20260830105240 76 5 2.0 9.0 0.00 0.00 0.00 75 1017.1
20260830105059 76 38 3.0 9.0 0.00 0.00 0.00 75 1017.1
20260830105012 76 40 4.0 9.0 0.00 0.00 0.00 75 1017.2
20260830104919 76 65 4.0 9.0 0.00 0.00 0.00 74 1017.1
20260830104737 76 67 4.0 9.0 0.00 0.00 0.00 74 1017.1
20260830104557 76 132 1.0 10.0 0.00 0.00 0.00 74 1017.1
20260830104549 76 92 1.0 10.0 0.00 0.00 0.00 74 1017.1
20260830104419 76 146 4.0 10.0 0.00 0.00 0.00 74 1017.2
20260830104008 76 113 3.0 10.0 0.00 0.00 0.00 74 1017.2
20260830103915 76 107 5.0 10.0 0.00 0.00 0.00 74 1017.2
20260830103738 76 105 5.0 10.0 0.00 0.00 0.00 74 1017.2
20260830103603 76 123 5.0 8.0 0.00 0.00 0.00 74 1017.3
20260830103550 76 97 5.0 8.0 0.00 0.00 0.00 74 1017.3
20260830103407 76 77 5.0 8.0 0.00 0.00 0.00 75 1017.4
20260830102611 75 44 2.0 4.0 0.00 0.00 0.00 77 1017.4
20260830102558 75 350 2.0 4.0 0.00 0.00 0.00 77 1017.4
20260830102421 75 52 2.0 4.0 0.00 0.00 0.00 78 1017.4
20260830102109 75 23 1.0 4.0 0.00 0.00 0.00 79 1017.3
20260830102009 75 352 2.0 4.0 0.00 0.00 0.00 79 1017.3
20260830101247 74 63 1.0 3.0 0.00 0.00 0.00 78 1017.4
20260830101133 74 57 2.0 5.0 0.00 0.00 0.00 78 1017.4
20260830100714 74 52 0.0 5.0 0.00 0.00 0.00 79 1017.4
20260830100610 74 64 2.0 5.0 0.00 0.00 0.00 79 1017.5
20260830100437 74 53 1.0 5.0 0.00 0.00 0.00 78 1017.5
20260830100322 74 37 2.0 6.0 0.00 0.00 0.00 78 1017.5
20260830095910 74 49 1.0 8.0 0.00 0.00 0.00 78 1017.5
20260830095738 74 150 2.0 8.0 0.00 0.00 0.00 78 1017.4
20260830095346 74 103 2.0 8.0 0.00 0.00 0.00 78 1017.4
20260830094827 74 144 5.0 8.0 0.00 0.00 0.00 78 1017.4
20260830094751 75 138 6.0 8.0 0.00 0.00 0.00 78 1017.5
20260830094209 75 122 4.0 10.0 0.00 0.00 0.00 78 1017.5
20260830094145 75 136 4.0 10.0 0.00 0.00 0.00 78 1017.5
20260830094018 75 107 5.0 10.0 0.00 0.00 0.00 78 1017.5
20260830093829 75 79 5.0 10.0 0.00 0.00 0.00 77 1017.5
20260830093719 75 82 6.0 10.0 0.00 0.00 0.00 79 1017.4
20260830093641 75 70 8.0 10.0 0.00 0.00 0.00 78 1017.5
20260830093449 74 122 8.0 10.0 0.00 0.00 0.00 79 1017.5
20260830093303 74 90 6.0 10.0 0.00 0.00 0.00 79 1017.5
20260830093245 74 63 6.0 10.0 0.00 0.00 0.00 79 1017.5
20260830093114 74 148 5.0 9.0 0.00 0.00 0.00 79 1017.5
20260830092921 74 98 4.0 9.0 0.00 0.00 0.00 79 1017.4
20260830092816 74 146 4.0 6.0 0.00 0.00 0.00 79 1017.4
20260830092733 74 78 4.0 6.0 0.00 0.00 0.00 79 1017.4
20260830092533 74 50 3.0 6.0 0.00 0.00 0.00 79 1017.4
20260830092134 74 109 2.0 6.0 0.00 0.00 0.00 80 1017.3
20260830091952 74 111 3.0 6.0 0.00 0.00 0.00 80 1017.4
20260830091800 74 140 3.0 7.0 0.00 0.00 0.00 80 1017.4
20260830091701 74 131 3.0 7.0 0.00 0.00 0.00 80 1017.4
20260830091613 74 163 4.0 7.0 0.00 0.00 0.00 79 1017.4
20260830091418 74 136 1.0 7.0 0.00 0.00 0.00 80 1017.4
20260830091247 74 117 2.0 7.0 0.00 0.00 0.00 80 1017.3
20260830091111 74 101 4.0 7.0 0.00 0.00 0.00 79 1017.3
20260830090618 74 86 3.0 7.0 0.00 0.00 0.00 80 1017.4
20260830090526 74 83 4.0 7.0 0.00 0.00 0.00 79 1017.4
20260830085945 74 50 4.0 8.0 0.00 0.00 0.00 79 1017.3
20260830085548 74 82 4.0 8.0 0.00 0.00 0.00 79 1017.4
20260830085039 74 92 6.0 9.0 0.00 0.00 0.00 79 1017.5
20260830084952 74 84 6.0 9.0 0.00 0.00 0.00 78 1017.4
20260830084753 74 66 5.0 9.0 0.00 0.00 0.00 79 1017.4
20260830084612 74 98 2.0 9.0 0.00 0.00 0.00 79 1017.3
20260830084555 74 116 2.0 9.0 0.00 0.00 0.00 79 1017.3
20260830084423 74 53 5.0 9.0 0.00 0.00 0.00 78 1017.4